www.pogodaiklimat.ru

Погода и климат >> Архив погоды >> Ирак >> Кут-аль-Хай


ПОГОДА в Кут-аль-Хай

  • Прогноз погоды в Кут-аль-Хай
  • Монитор погоды в Кут-аль-Хай

АРХИВ ПОГОДЫ в Кут-аль-Хай

Время (UTC), дата Ветер
(напр.,м/с)
 
Видим.   Явления Облачность Т
(С)
Тd
(С)
f
(%)
Тe
(С)
Тes
(С)
Комфортность P
(гПа)
Po
(гПа)
Тmin
(С)
Tmax
(С)
R
(мм)
R24
(мм)
S
(см)
12 9.09 З 7 10 км ясно +40.6 +13.1 20 +41 +43 опасность
перегрева
1001.9 1000.3
15 9.09 З 5 10 км ясно +37.4 +13.2 24 +38 +38 душно 1002.3 1000.6
18 9.09 СЗ 7 10 км ясно +33.4 +13.5 30 +34 +34 очень
жарко
1003.6 1001.9 +41.0
21 9.09 СЗ 4 10 км ясно +30.0 +11.9 33 +31 +31 жарко 1003.4 1001.7
06 10.09 З 4 10 км ясно +34.0 +9.7 23 +33 +39 жарко 1004.8 1003.1 +26.0
09 10.09 З 5 10 км ясно +39.8 +10.2 17 +38 +47 очень
жарко
1004.4 1002.8
12 10.09 СЗ 9 10 км ясно +40.2 +11.6 18 +39 +40 очень
жарко
1003.2 1001.6
15 10.09 СЗ 5 10 км ясно +37.2 +13.1 24 +37 +37 очень
жарко
1003.3 1001.6
18 10.09 З 4 10 км ясно +32.8 +12.3 29 +33 +33 жарко 1004.4 1002.7 +40.4
21 10.09 СЗ 4 10 км ясно +30.6 +11.6 31 +31 +31 жарко 1004.4 1002.7
00 11.09 З 3 10 км ясно +28.0 +12.2 38 +29 +29 жарко 1004.4 1002.7
09 11.09 З 4 10 км ясно +39.7 +8.2 15 +38 +49 очень
жарко
1007.7 1006.1
12 11.09 З 5 10 км ясно +40.0 +8.5 15 +38 +42 очень
жарко
1006.8 1005.2
21 11.09 З 4 10 км ясно +29.8 +12.0 33 +30 +30 жарко 1006.6 1004.9
00 12.09 СЗ 2 10 км ясно +27.9 +12.5 39 +29 +29 жарко 1005.8 1004.1
03 12.09 З 3 10 км ясно +24.7 +12.1 45 +26 +26 жарко 1006.9 1005.2
06 12.09 З 4 10 км ясно +33.4 +12.3 28 +34 +40 очень
жарко
1008.3 1006.6 +24.6
09 12.09 З 5 10 км ясно +39.0 +11.8 20 +38 +47 очень
жарко
1007.6 1005.9
12 12.09 З 6 10 км ясно +40.6 +12.3 19 +40 +43 очень
жарко
1006.0 1004.4
15 12.09 З 3 10 км ясно +37.0 +12.2 23 +37 +37 очень
жарко
1007.5 1005.8
18 12.09 З 4 10 км ясно +33.6 +10.6 25 +33 +33 жарко 1004.2 1004.0 +41.0
21 12.09 З 3 10 км ясно +30.0 +8.8 27 +29 +29 жарко 1005.7 1004.0
00 13.09 СЗ 3 10 км ясно +27.8 +8.9 30 +28 +28 жарко 1004.6 1002.9
03 13.09 З 2 10 км ясно +25.6 +11.3 41 +27 +27 жарко 1005.5 1003.8
06 13.09 З 3 10 км ясно +32.6 +13.5 31 +34 +41 очень
жарко
1007.6 1005.9 +25.2
12 13.09 З 3 10 км ясно +41.0 +11.9 18 +40 +47 очень
жарко
1005.6 1004.0
15 13.09 З 3 10 км ясно +37.8 +14.1 24 +38 +38 очень
жарко
1006.0 1004.3
18 13.09 СЗ 3 10 км ясно +32.8 +13.8 32 +34 +34 очень
жарко
1006.9 1005.2 +41.4
21 13.09 СЗ 3 10 км ясно +29.6 +12.7 35 +31 +31 жарко 1006.8 1005.1
00 14.09 штиль 0 10 км ясно +28.4 +12.3 37 +30 +30 жарко 1006.2 1004.5
03 14.09 З 2 10 км ясно +27.4 +13.2 42 +29 +29 жарко 1007.0 1005.3
09 14.09 З 2 10 км ясно +40.6 +11.8 18 +40 +56 опасность
солнечного
удара
1007.5 1005.9
12 14.09 З 3 10 км ясно +42.0 +10.5 15 +40 +47 очень
жарко
1006.2 1004.6
15 14.09 З 1 10 км ясно +38.0 +15.6 27 +40 +40 очень
душно
1005.6 1003.9
18 14.09 штиль 0 10 км ясно +32.8 +16.6 38 +36 +36 очень
душно
1006.7 1005.0 +42.5
21 14.09 СЗ 2 10 км ясно +29.6 +14.7 40 +32 +32 душно 1006.4 1004.7
00 15.09 СЗ 2 10 км ясно +27.0 +10.5 36 +28 +28 жарко 1004.7 1003.0
03 15.09 Ю 2 10 км ясно +27.5 +11.9 38 +29 +29 жарко 1005.9 1004.2
06 15.09 Ю 3 10 км ясно +34.0 +14.7 31 +35 +42 очень
жарко
1007.5 1005.8 +26.5
09 15.09 ЮВ 2 10 км ясно +43.0 +12.9 17 +43 +59 опасность
перегрева
1006.5 1004.9
12 15.09 ЮВ 2 10 км ясно +44.5 +11.1 14 +43 +51 опасность
перегрева
1004.7 1003.1
15 15.09 ЮВ 3 10 км 3/0
[Ci ing]
+39.6 +13.1 21 +40 +40 очень
душно
1004.3 1002.7
18 15.09 В 3 10 км 6/0
[Ac und]
+34.8 +11.6 25 +35 +35 очень
жарко
1005.9 1004.2 +45.0
21 15.09 СВ 2 10 км ясно +31.0 +14.7 37 +33 +33 душно 1006.6 1004.9
00 16.09 З 2 10 км ясно +29.8 +15.0 41 +32 +32 душно 1006.9 1005.2
03 16.09 В 2 10 км ясно +26.0 +14.3 48 +28 +28 жарко 1008.0 1006.3
06 16.09 В 2 10 км ясно +35.0 +15.5 31 +37 +45 очень
душно
1009.1 1007.4 +25.5
09 16.09 штиль 0 10 км ясно +43.8 +14.4 18 +44 +66 опасность
перегрева
1008.0 1006.4

 

Местоположение метеостанции Кут-аль-Хай (Ирак): широта 32.17 долгота 46.05 высота над уровнем моря 15 м.

В архиве по умолчанию представлена погода в Кут-аль-Хай за последнюю неделю. Архивные данные за месяц целиком и за предыдущие месяцы, начиная с января 2011 года, Вы можете получить, выбрав интересующий диапазон дат из раскрывающегося списка и нажав кнопку "Ввод!".


*Определитесь, кто Вы:
робот инопланетянин человек

Внимание! Время в таблицах - всемирное. Для получения местного времени необходимо прибавить поправку, которая равна 3 ч.

Смотрите также архив погоды в соседних городах и на ближайших метеорологических станциях:

Погода в Убайда Бин Аль Джарра (Ирак) (45 км)
Погода в Рифаи (Ирак) (50 км)
Погода в Али Аль-Гарби (Ирак) (71 км)
Погода в Дивании (Ирак) (103 км)
Погода в Бадре (Ирак) (104 км)
Погода в Амаре (Ирак) (111 км)
Погода в Эс-Самаве (Ирак) (122 км)
Погода в Насирии (Ирак) (122 км)
Погода в Эль-Азизии (Ирак) (124 км)
Погода в Хелле (Ирак) (154 км)

Пояснения к столбцам:

Ветер - указаны скорость ветра в м/с - средняя за 10 мин, порывы в срок и между сроками (в фигурных скобках) и направление, откуда дует ветер: С - северный, СВ - северо-восточный, В - восточный, ЮВ - юго-восточный, Ю - южный, ЮЗ - юго-западный, З - западный, СЗ - северо-западный.
Видимость - горизонтальная дальность видимости в метрах или километрах. При видимости от 1 до 10 км при отсутствии осадков обычно наблюдается дымка, при ухудшении видимости до 1 км и менее - туман. В сухую погоду видимость может ухудшаться дымом, пылью или мглою.
Явления - указаны атмосферные явления, наблюдавшиеся в срок или в последний час перед сроком; фигурными скобками обозначены явления, наблюдавшиеся между сроками (за 1-3 часа до срока); квадратными скобками обозначены град или гололедные отложения с указанием их диаметра в мм.
Облачность - указаны через наклонную черту общая и нижняя облачность в баллах и высота нижней границы облаков в метрах; квадратными скобками обозначены формы облаков: Ci - перистые, Cs - перисто-слоистые, Cc - перисто-кучевые, Ac - высококучевые, As - высокослоистые, Sc - слоисто-кучевые, Ns - слоисто-дождевые, Cu - кучевые, Cb - кучево-дождевые. Подробнее классификацию облаков см. в Атласе облаков (PDF).
T - Температура воздуха - температура, измеренная на высоте 2 м над землей.
Td - Температура точки росы - температура, при понижении до которой содержащийся в воздухе водяной пар достигнет насыщения.
f - Относительная влажность воздуха - влажноcть воздуха, измеренная на высоте 2 м над землей.
Te - Эффективная температура - температура, которую ощущает одетый по сезону человек в тени. Характеристика душности погоды. При расчете учитывается влияние влажности воздуха и скорости ветра на теплоощущения человека.
Tes - Эффективная температура на солнце - температура, которую ощущает человек, с поправкой на солнечный нагрев. Характеристика знойности погоды. Зависит от высоты солнца над горизонтом, облачности и скорости ветра. Ночью, в пасмурную погоду, а также при ветре 12 м/с и более поправка равна нулю.
P - Атмосферное давление - приведенное к уровню моря атмосферное давление.
Po - Атмосферное давление - измеренное на уровне метеостанции атмосферное давление.
Tmin - Минимальная температура - минимум температуры воздуха на высоте 2 м над землей.
Tmax - Максимальная температура - максимум температуры воздуха на высоте 2 м над землей.
R - Количество осадков - Количество выпавших осадков за период времени, мм. При наведении курсора мыши на число - период времени, за который выпало указанное количество осадков.
R24 - Количество осадков - Количество выпавших осадков за 24 часа, мм.
S - Снежный покров - Высота снежного покрова, см. При наведении курсора мыши на число - состояние снежного покрова и степень покрытия местности в баллах.